www.pogodaiklimat.ru

Погода и климат >> Архив погоды >> Аргентина >> Villa Reynolds


ПОГОДА в Villa Reynolds

  • Прогноз погоды в Villa Reynolds
  • Монитор погоды в Villa Reynolds
  • Климат города

АРХИВ ПОГОДЫ в Villa Reynolds

Время (UTC), дата Ветер
(напр.,м/с)
 
Видим.   Явления Облачность Т
(С)
Тd
(С)
f
(%)
Тe
(С)
Тes
(С)
Комфортность P
(гПа)
Po
(гПа)
Тmin
(С)
Tmax
(С)
R
(мм)
R24
(мм)
S
(см)
21 18.04 С 5 10 км {дождь} 10/8 300 м
[Sc As op]
+16.2 +14.3 89 +15 +15 1017.8 960.9
00 19.04 СВ 3 10 км {дождь} 8/3 300 м
[Sc Ac As]
+13.7 +12.5 92 +12 +12 1017.4 960.6 +13.5 +17.4 0.0
03 19.04 штиль 0 10 км ясно +10.7 +10.3 97 +10 +10 1017.5 960.6
06 19.04 штиль 0 900 м туман ясно +8.0 +8.0 100 +7 +7 1015.1 958.0
09 19.04 ЮЗ 3 10 км {туман} ясно +6.0 +5.6 97 +3 +3 1014.7 957.4
12 19.04 штиль 0 10 км {туман} 3/0
[Ac As]
+8.6 +7.8 95 +8 +9 1015.5 958.2 +5.2 +13.8 0.7
15 19.04 штиль 0 15 км 4/0
[Ac As Ci sp]
+20.0 +13.2 65 +22 +31 комфорт 1014.0 957.7
18 19.04 ЮЗ 3 15 км 4/4 750 м
[Sc]
+22.6 +14.0 58 +26 +30 жарко 1012.1 955.8
21 19.04 Ю 3 15 км 8/8 750 м
[Sc]
+22.0 +15.5 67 +26 +26 душно 1012.3 955.8
00 20.04 З 2 15 км 1/0
[Cs]
+15.0 +12.9 87 +15 +15 1014.2 957.2 +8.6 +24.5
03 20.04 С 3 15 км ясно +14.4 +12.1 86 +13 +13 1013.7 957.7
06 20.04 штиль 0 10 км ясно +10.4 +9.6 95 +10 +10 1013.2 957.0
09 20.04 штиль 0 10 км ясно +10.5 +9.9 96 +10 +10 1013.2 957.0
12 20.04 штиль 0 10 км 1/0
[Cs]
+11.6 +10.9 95 +11 +12 1015.0 958.2 +8.3 +15.0
15 20.04 штиль 0 10 км 9/0
[Cs]
+20.2 +13.8 67 +22 +32 комфорт 1013.2 957.3
18 20.04 штиль 0 10 км 5/0
[Cs]
+23.2 +10.6 45 +25 +35 комфорт 1010.6 954.6
21 20.04 штиль 0 15 км 3/0
[Cs]
+23.0 +10.8 46 +25 +26 комфорт 1009.9 954.1
00 21.04 штиль 0 10 км ясно +15.0 +11.0 77 +15 +15 1012.6 956.0 +11.6 +25.6
03 21.04 штиль 0 10 км 8/0
[Ac As]
+15.0 +12.3 84 +15 +15 1013.8 957.8
06 21.04 ЮВ 2 8000 м слабый дождь 10/5 300 м
[Sc As op]
+14.2 +12.1 87 +14 +14 1015.7 959.8 0.0
09 21.04 СЗ 3 8000 м слабый дождь 10/5 300 м
[Sc As op]
+13.1 +12.9 99 +12 +12 1015.6 959.7
12 21.04 штиль 0 10 км {дождь} 9/3 900 м
[Sc Ac As]
+13.0 +12.3 96 +12 +13 1018.7 961.8 +11.8 +15.2 2
15 21.04 В 3 15 км 6/3 900 м
[Sc Ac As]
+18.0 +6.3 46 +18 +22 1020.0 963.6
18 21.04 В 1 15 км 5/1 900 м
[Sc Ac As]
+20.2 +6.3 40 +22 +28 комфорт 1017.4 961.2
21 21.04 В 3 15 км 4/3 900 м
[Sc Ci fib]
+19.4 +5.7 41 +20 +21 1017.2 960.9
00 22.04 С 2 10 км ясно +10.8 +6.0 72 +10 +10 1019.1 961.8 +10.3 +20.6
03 22.04 С 3 10 км ясно +8.2 +5.6 84 +5 +5 1019.2 962.2
06 22.04 штиль 0 10 км 8/5 600 м
[Sc Ac As]
+7.4 +6.1 91 +6 +6 1017.5 960.6
09 22.04 штиль 0 10 км в посл. час дождь 10/8 600 м
[Sc As op]
+10.0 +8.0 87 +9 +9 1016.4 959.8
12 22.04 ЮВ 2 3000 м дождь 10/8 240 м
[St As op]
+12.8 +12.4 97 +12 +12 1019.3 962.0 +6.8 +12.8 5
15 22.04 В 4 8000 м слабый дождь туман 10/4 300 м
[St As op]
+12.8 +12.4 97 +11 +11 1021.3 963.6
18 22.04 С 5 12 км {дождь} 6/1 600 м
[Sc Ac As]
+16.8 +13.4 80 +16 +18 1018.4 961.2 3
21 22.04 СВ 3 12 км 4/0
[Ac As]
+18.0 +12.4 70 +18 +19 1017.1 960.2
00 23.04 штиль 0 15 км 3/0
[Ac As]
+10.0 +8.4 90 +9 +9 1018.6 961.3 +9.8 +18.3
03 23.04 З 2 10 км ясно +9.7 +8.1 90 1018.4 961.4
06 23.04 ЮЗ 1 10 км 3/3 900 м
[Sc]
+9.7 +8.3 91 +9 +9 1017.5 960.6
09 23.04 штиль 0 10 км 6/3 900 м
[Sc Ac As]
+9.0 +7.8 92 +8 +8 1015.8 959.0
12 23.04 С 2 10 км 8/0
[Ac As Cs]
+13.6 +12.4 92 +13 +13 1015.9 958.8 +8.4 +13.6 3
15 23.04 СЗ 6 15 км 6/5 1050 м
[Cu hum Ac As]
+24.2 +10.6 42 +25 +27 комфорт 1014.0 958.0
18 23.04 СЗ 4 10 км 10/9 750 м
[Cu hum Ac As]
+22.7 +12.7 53 +25 +26 комфорт 1011.5 955.4
21 23.04 З 6 10 км 10/9 900 м
[Sc Ac As]
+20.7 +12.5 59 +23 +23 комфорт 1011.0 954.6
00 24.04 Ю 4 10 км 8/8 450 м
[St As op]
+17.2 +15.5 90 +17 +17 1013.4 957.0 +13.6 +24.3
03 24.04 В 6 10 км 10/5 300 м
[St As op]
+12.7 +11.4 92 +10 +10 1015.5 959.7
06 24.04 СВ 3 10 км 10/5 300 м
[St As op]
+11.7 +11.0 95 +10 +10 1015.4 959.3
09 24.04 штиль 0 10 км 6/3 450 м
[Sc Ac As]
+9.6 +8.8 95 +9 +9 1014.8 958.4
12 24.04 ЮВ 3 8000 м дымка 10/10 210 м
[St]
+10.6 +10.2 97 +9 +9 1015.7 959.0 +9.2 +17.3
15 24.04 В 1 8000 м дымка {туман} 10/10 300 м
[St]
+12.2 +11.1 93 +12 +12 1015.7 958.6
18 24.04 В 3 10 км {туман} 5/0
[Ac As Ci sp]
+16.2 +10.8 70 +16 +20 1012.2 955.7
21 24.04 СВ 4 10 км 1/0
[Ci sp]
+16.2 +11.9 76 +15 +16 1010.7 954.1
00 25.04 СВ 3 10 км 5/0
[Ci sp]
+11.4 +10.2 92 +9 +9 1011.2 954.2 +10.4 +18.1
03 25.04 В 3 10 км зарница 4/3 900 м
[Cb cap Ci sp]
+9.6 +9.2 97 +7 +7 1010.9 953.8
06 25.04 ЮВ 5 8000 м гроза, ливневой дождь 10/8 300 м
[Cb cap As op]
+10.9 +10.9 100 +8 +8 1009.0 952.6 0.0
09 25.04 З 3 8000 м гроза, ливневой дождь 10/8 900 м
[Cb cap As op]
+9.7 +9.5 99 +7 +7 1009.9 953.3
12 25.04 ЮЗ 3 8000 м в посл. час гроза туман 10/8 240 м
[St As op]
+10.2 +10.2 100 +8 +8 1012.3 955.2 +9.4 +11.5 22
15 25.04 Ю 2 5000 м в посл. час морось {дождь} 10/6 120 м
[St As op]
+11.4 +11.4 100 +10 +11 1014.1 956.8

 

Местоположение метеостанции Villa Reynolds (Аргентина): широта -33.73 долгота -65.38 высота над уровнем моря 486 м.

В архиве по умолчанию представлена погода в Villa Reynolds за последнюю неделю. Архивные данные за месяц целиком и за предыдущие месяцы, начиная с января 2011 года, Вы можете получить, выбрав интересующий диапазон дат из раскрывающегося списка и нажав кнопку "Ввод!".

Внимание! Время в таблицах - всемирное. Для получения местного времени необходимо прибавить поправку, которая в Villa Reynolds равна -3 ч.

Смотрите также архив погоды в соседних городах и на ближайших метеорологических станциях:

Погода в San Luis (Аргентина) (104 км)
Погода в Rio Cuarto (Аргентина) (125 км)
Погода в Laboulaye (Аргентина) (192 км)
Погода в Villa Dolores (Аргентина) (199 км)
Погода в General Pico (Аргентина) (265 км)
Погода в Pilar (Аргентина) (270 км)
Погода в San Martin (Аргентина) (290 км)
Погода в Cordoba (Аргентина) (291 км)
Погода в San Rafael (Аргентина) (294 км)
Погода в Marcos Juarez (Аргентина) (322 км)

Пояснения к столбцам:

Ветер - указаны скорость ветра в м/с - средняя за 10 мин, порывы в срок и между сроками (в фигурных скобках) и направление, откуда дует ветер: С - северный, СВ - северо-восточный, В - восточный, ЮВ - юго-восточный, Ю - южный, ЮЗ - юго-западный, З - западный, СЗ - северо-западный.
Видимость - горизонтальная дальность видимости в метрах или километрах. При видимости от 1 до 10 км при отсутствии осадков обычно наблюдается дымка, при ухудшении видимости до 1 км и менее - туман. В сухую погоду видимость может ухудшаться дымом, пылью или мглою.
Явления - указаны атмосферные явления, наблюдавшиеся в срок или в последний час перед сроком; фигурными скобками обозначены явления, наблюдавшиеся между сроками (за 1-3 часа до срока); квадратными скобками обозначены град или гололедные отложения с указанием их диаметра в мм.
Облачность - указаны через наклонную черту общая и нижняя облачность в баллах и высота нижней границы облаков в метрах; квадратными скобками обозначены формы облаков: Ci - перистые, Cs - перисто-слоистые, Cc - перисто-кучевые, Ac - высококучевые, As - высокослоистые, Sc - слоисто-кучевые, Ns - слоисто-дождевые, Cu - кучевые, Cb - кучево-дождевые. Подробнее классификацию облаков см. в Атласе облаков (PDF).
T - Температура воздуха - температура, измеренная на высоте 2 м над землей.
Td - Температура точки росы - температура, при понижении до которой содержащийся в воздухе водяной пар достигнет насыщения.
f - Относительная влажность воздуха - влажноcть воздуха, измеренная на высоте 2 м над землей.
Te - Эффективная температура - температура, которую ощущает одетый по сезону человек в тени. Характеристика душности погоды. При расчете учитывается влияние влажности воздуха и скорости ветра на теплоощущения человека.
Tes - Эффективная температура на солнце - температура, которую ощущает человек, с поправкой на солнечный нагрев. Характеристика знойности погоды. Зависит от высоты солнца над горизонтом, облачности и скорости ветра. Ночью, в пасмурную погоду, а также при ветре 12 м/с и более поправка равна нулю.
P - Атмосферное давление - приведенное к уровню моря атмосферное давление.
Po - Атмосферное давление - измеренное на уровне метеостанции атмосферное давление.
Tmin - Минимальная температура - минимум температуры воздуха на высоте 2 м над землей.
Tmax - Максимальная температура - максимум температуры воздуха на высоте 2 м над землей.
R - Количество осадков - Количество выпавших осадков за период времени, мм. При наведении курсора мыши на число - период времени, за который выпало указанное количество осадков.
R24 - Количество осадков - Количество выпавших осадков за 24 часа, мм.
S - Снежный покров - Высота снежного покрова, см. При наведении курсора мыши на число - состояние снежного покрова и степень покрытия местности в баллах.